Regional Weather Roundup
Issued by NWS

Home | Current Version | Previous Version | Graphics & Text | Print | Product List | Glossary On
Versions: 1 2 3 4 5 6 7 8 9 10 11 12 13 14 15 16 17 18 19 20 21 22 23 24 25 26 27 28 29 30 31 32 33 34 35 36 37 38 39 40 41 42 43 44 45 46 47 48 49 50
423
ASUS44 KJAN 270910
RWRMS

MISSISSIPPI HOURLY WEATHER ROUNDUP
NATIONAL WEATHER SERVICE JACKSON MS
300 AM CST TUE JAN 27 2015

NOTE: "FAIR: INDICATES FEW OR NO CLOUDS BELOW 12,000 FEET WITH NO
SIGNIFICANT WEATHER AND/OR OBSTRUCTIONS TO VISIBILITY.

MSZ001>002-007>008-010>013-018>021-025>028-034>036-271000-
NORTHWEST MISSISSIPPI

CITY           SKY/WX    TMP DP  RH WIND       PRES   REMARKS
CLARKSDALE     FAIR      41  37  87 NW6       30.01S
CLEVELAND      FAIR      44  38  80 NW3       30.00S
GREENWOOD      CLEAR     40  34  79 CALM      30.00S
GREENVILLE     CLEAR     44  35  70 W6        30.01R
GRENADA        FAIR      36  34  93 W3        30.00S
OXFORD         FAIR      34  32  93 NW3       29.99R
$$

MSZ003>006-009-014>017-022>024-029>033-037>039-271000-
NORTHEAST MISSISSIPPI

CITY           SKY/WX    TMP DP  RH WIND       PRES   REMARKS
COLUMBUS AFB   CLEAR     30  29  94 CALM      29.96S
CORINTH        FAIR      30  28  93 CALM      29.94R
GOLDN TRIANGLE CLEAR     34  28  80 W3        29.95R
STARKVILLE     FAIR      45  36  70 W7        29.96S
TUPELO         CLEAR     37  32  82 W6        29.95R WCI  32
$$

MSZ040-058-271000-
CENTRAL MISSISSIPPI

CITY           SKY/WX    TMP DP  RH WIND       PRES   REMARKS
JACKSON INTL   CLEAR     45  33  63 SW3       30.01S
JACKSON HAWKNS CLEAR     46  34  62 W8        30.02S
MERIDIAN KEY   CLEAR     35  31  85 S6        29.98F WCI  30
MERIDIAN NAS   CLEAR     41  33  73 W8        29.98S
RAYMOND        FAIR      36  32  87 MISG      30.03S
VICKSBURG      CLEAR     39  34  82 CALM      30.04S
$$

MSZ059>079-271000-
SOUTH MISSISSIPPI

CITY           SKY/WX    TMP DP  RH WIND       PRES   REMARKS
BROOKHAVEN     FAIR      46  36  66 W9        30.04S
HATTIESBURG    CLEAR     47  35  63 W8        30.03F
MCCOMB         CLEAR     46  34  62 W8        30.04F
NATCHEZ        CLEAR     46  34  61 SW6       30.06S
PINE BELT      CLEAR     41  34  75 CALM      30.02S
$$

MSZ080>082-271000-
COASTAL MISSISSIPPI

CITY           SKY/WX    TMP DP  RH WIND       PRES   REMARKS
BILOXI         CLEAR     45  35  69 W5        30.04F
PASCAGOULA     CLEAR     39  35  86 W3        30.04F
GULFPORT       CLEAR     41  35  79 CALM      30.05F
$$



USA.gov is the U.S. government's official web portal to all federal, state and local government web resources and services.